Time,TemperatureF,DewpointF,PressureIn,WindDirection,WindDirectionDegrees,WindSpeedMPH,WindSpeedGustMPH,Humidity,HourlyPrecipIn,Conditions,Clouds,dailyrainin,SolarRadiationWatts/m^2,SoftwareType,DateUTC
2013-02-03 00:01:00,25.0,25.0,-100.00,ENE,57,5.0,8.0,100,-99.99,,,0.00,0.000000,,2013-02-03 07:01:00,
2013-02-03 00:11:00,25.0,25.0,-100.00,ENE,57,5.0,8.0,100,-99.99,,,0.00,0.000000,,2013-02-03 07:11:00,
2013-02-03 00:41:00,27.0,27.0,-100.00,NNE,32,10.0,13.0,100,-99.99,,,0.00,0.000000,,2013-02-03 07:41:00,
2013-02-03 00:52:00,27.0,27.0,-100.00,NNE,32,10.0,13.0,100,-99.99,,,0.00,0.000000,,2013-02-03 07:52:00,
2013-02-03 01:01:00,27.0,27.0,-100.00,NNE,32,10.0,13.0,100,-99.99,,,0.00,0.000000,,2013-02-03 08:01:00,
2013-02-03 01:11:00,27.0,27.0,-100.00,NNE,32,10.0,13.0,100,-99.99,,,0.00,0.000000,,2013-02-03 08:11:00,
2013-02-03 02:41:00,23.0,23.0,-100.00,SSE,156,3.0,4.0,100,-99.99,,,-99.99,0.000000,,2013-02-03 09:41:00,
2013-02-03 02:52:00,23.0,23.0,-100.00,SSE,156,3.0,4.0,100,-99.99,,,-99.99,0.000000,,2013-02-03 09:52:00,
2013-02-03 03:01:00,23.0,23.0,-100.00,SSE,156,3.0,4.0,100,-99.99,,,-99.99,0.000000,,2013-02-03 10:01:00,
2013-02-03 03:11:00,23.0,23.0,-100.00,SSE,156,3.0,4.0,100,-99.99,,,-99.99,0.000000,,2013-02-03 10:11:00,
2013-02-03 03:41:00,25.0,25.0,-100.00,NE,50,6.0,9.0,100,-99.99,,,0.00,0.000000,,2013-02-03 10:41:00,
2013-02-03 03:52:00,25.0,25.0,-100.00,NE,50,6.0,9.0,100,-99.99,,,0.00,0.000000,,2013-02-03 10:52:00,
2013-02-03 04:02:00,25.0,25.0,-100.00,NE,50,6.0,9.0,100,-99.99,,,0.00,0.000000,,2013-02-03 11:02:00,
2013-02-03 04:11:00,25.0,25.0,-100.00,NE,50,6.0,9.0,100,-99.99,,,0.00,0.000000,,2013-02-03 11:11:00,
2013-02-03 04:41:00,24.0,24.0,-100.00,NE,46,8.0,10.0,100,-99.99,,,0.00,0.000000,,2013-02-03 11:41:00,
2013-02-03 04:52:00,24.0,24.0,-100.00,NE,46,8.0,10.0,100,-99.99,,,0.00,0.000000,,2013-02-03 11:52:00,
2013-02-03 05:02:00,24.0,24.0,-100.00,NE,46,8.0,10.0,100,-99.99,,,0.00,0.000000,,2013-02-03 12:02:00,
2013-02-03 05:11:00,24.0,24.0,-100.00,NE,46,8.0,10.0,100,-99.99,,,0.00,0.000000,,2013-02-03 12:11:00,
2013-02-03 05:42:00,23.0,23.0,-100.00,East,79,4.0,9.0,100,-99.99,,,0.00,0.000000,,2013-02-03 12:42:00,
2013-02-03 05:53:00,23.0,23.0,-100.00,East,79,4.0,9.0,100,-99.99,,,0.00,0.000000,,2013-02-03 12:53:00,
2013-02-03 06:03:00,23.0,23.0,-100.00,East,79,4.0,9.0,100,-99.99,,,0.00,0.000000,,2013-02-03 13:03:00,
2013-02-03 06:11:00,23.0,23.0,-100.00,East,79,4.0,9.0,100,-99.99,,,0.00,0.000000,,2013-02-03 13:11:00,
2013-02-03 06:32:00,24.0,24.0,-100.00,NNE,23,7.0,9.0,100,-99.99,,,-99.99,0.000000,,2013-02-03 13:32:00,
2013-02-03 06:42:00,24.0,24.0,-100.00,NNE,23,7.0,9.0,100,-99.99,,,-99.99,0.000000,,2013-02-03 13:42:00,
2013-02-03 06:52:00,24.0,24.0,-100.00,NNE,23,7.0,9.0,100,-99.99,,,-99.99,0.000000,,2013-02-03 13:52:00,
2013-02-03 07:02:00,24.0,24.0,-100.00,NNE,23,7.0,9.0,100,-99.99,,,-99.99,0.000000,,2013-02-03 14:02:00,
2013-02-03 07:11:00,24.0,24.0,-100.00,NNE,23,7.0,9.0,100,-99.99,,,-99.99,0.000000,,2013-02-03 14:11:00,
2013-02-03 07:42:00,23.0,23.0,-100.00,ENE,78,1.0,2.0,100,-99.99,,,0.00,0.000000,,2013-02-03 14:42:00,
2013-02-03 07:52:00,23.0,23.0,-100.00,ENE,78,1.0,2.0,100,-99.99,,,0.00,0.000000,,2013-02-03 14:52:00,
2013-02-03 08:03:00,23.0,23.0,-100.00,ENE,78,1.0,2.0,100,-99.99,,,0.00,0.000000,,2013-02-03 15:03:00,
2013-02-03 08:11:00,23.0,23.0,-100.00,ENE,78,1.0,2.0,100,-99.99,,,0.00,0.000000,,2013-02-03 15:11:00,
2013-02-03 08:41:00,23.0,23.0,-100.00,ENE,76,2.0,4.0,100,-99.99,,,0.00,22.780001,,2013-02-03 15:41:00,
2013-02-03 08:52:00,23.0,23.0,-100.00,ENE,76,2.0,4.0,100,-99.99,,,0.00,22.780001,,2013-02-03 15:52:00,
2013-02-03 09:02:00,23.0,23.0,-100.00,ENE,76,2.0,4.0,100,-99.99,,,0.00,22.780001,,2013-02-03 16:02:00,
2013-02-03 09:11:00,23.0,23.0,-100.00,ENE,76,2.0,4.0,100,-99.99,,,0.00,22.780001,,2013-02-03 16:11:00,
2013-02-03 09:41:00,23.0,23.0,-100.00,NE,36,3.0,5.0,100,-99.99,,,0.00,91.809998,,2013-02-03 16:41:00,
2013-02-03 09:52:00,23.0,23.0,-100.00,NE,36,3.0,5.0,100,-99.99,,,0.00,91.809998,,2013-02-03 16:52:00,
2013-02-03 10:02:00,23.0,23.0,-100.00,NE,36,3.0,5.0,100,-99.99,,,0.00,91.809998,,2013-02-03 17:02:00,
2013-02-03 10:11:00,23.0,23.0,-100.00,NE,36,3.0,5.0,100,-99.99,,,0.00,91.809998,,2013-02-03 17:11:00,
2013-02-03 10:42:00,23.0,23.0,-100.00,WSW,254,2.0,3.0,100,-99.99,,,0.00,222.449997,,2013-02-03 17:42:00,
2013-02-03 10:52:00,23.0,23.0,-100.00,WSW,254,2.0,3.0,100,-99.99,,,0.00,222.449997,,2013-02-03 17:52:00,
2013-02-03 11:02:00,23.0,23.0,-100.00,WSW,254,2.0,3.0,100,-99.99,,,0.00,222.449997,,2013-02-03 18:02:00,
2013-02-03 11:11:00,23.0,23.0,-100.00,WSW,254,2.0,3.0,100,-99.99,,,0.00,222.449997,,2013-02-03 18:11:00,
2013-02-03 11:41:00,24.0,24.0,-100.00,North,349,5.0,8.0,100,-99.99,,,0.00,293.690002,,2013-02-03 18:41:00,
2013-02-03 11:52:00,24.0,24.0,-100.00,North,349,5.0,8.0,100,-99.99,,,0.00,293.690002,,2013-02-03 18:52:00,
2013-02-03 12:02:00,24.0,24.0,-100.00,North,349,5.0,8.0,100,-99.99,,,0.00,293.690002,,2013-02-03 19:02:00,
2013-02-03 12:11:00,24.0,24.0,-100.00,North,349,5.0,8.0,100,-99.99,,,0.00,293.690002,,2013-02-03 19:11:00,
2013-02-03 12:32:00,25.0,25.0,-100.00,SSW,203,4.0,8.0,100,-99.99,,,0.00,378.640015,,2013-02-03 19:32:00,
2013-02-03 12:41:00,25.0,25.0,-100.00,SSW,203,4.0,8.0,100,-99.99,,,0.00,378.640015,,2013-02-03 19:41:00,
2013-02-03 12:52:00,25.0,25.0,-100.00,SSW,203,4.0,8.0,100,-99.99,,,0.00,378.640015,,2013-02-03 19:52:00,
2013-02-03 13:01:00,25.0,25.0,-100.00,SSW,203,4.0,8.0,100,-99.99,,,0.00,378.640015,,2013-02-03 20:01:00,
2013-02-03 13:11:00,25.0,25.0,-100.00,SSW,203,4.0,8.0,100,-99.99,,,0.00,378.640015,,2013-02-03 20:11:00,
2013-02-03 13:42:00,26.0,26.0,-100.00,NW,304,2.0,5.0,100,-99.99,,,0.00,344.239990,,2013-02-03 20:42:00,
2013-02-03 13:52:00,26.0,26.0,-100.00,NW,304,2.0,5.0,100,-99.99,,,0.00,344.239990,,2013-02-03 20:52:00,
2013-02-03 14:03:00,26.0,26.0,-100.00,NW,304,2.0,5.0,100,-99.99,,,0.00,344.239990,,2013-02-03 21:03:00,
2013-02-03 14:11:00,26.0,26.0,-100.00,NW,304,2.0,5.0,100,-99.99,,,0.00,344.239990,,2013-02-03 21:11:00,
2013-02-03 14:42:00,28.0,28.0,-100.00,SE,146,1.0,3.0,100,-99.99,,,-99.99,331.690002,,2013-02-03 21:42:00,
2013-02-03 14:52:00,28.0,28.0,-100.00,SE,146,1.0,3.0,100,-99.99,,,-99.99,331.690002,,2013-02-03 21:52:00,
2013-02-03 15:01:00,28.0,28.0,-100.00,SE,146,1.0,3.0,100,-99.99,,,-99.99,331.690002,,2013-02-03 22:01:00,
2013-02-03 15:11:00,28.0,28.0,-100.00,SE,146,1.0,3.0,100,-99.99,,,-99.99,331.690002,,2013-02-03 22:11:00,
2013-02-03 16:12:00,30.0,29.0,-100.00,South,189,1.0,3.0,97,-99.99,,,0.00,445.820007,,2013-02-03 23:12:00,
2013-02-03 17:11:00,28.0,28.0,-100.00,NNE,32,3.0,5.0,99,-99.99,,,0.00,220.470001,,2013-02-04 00:11:00,
2013-02-03 18:11:00,28.0,27.0,-100.00,ESE,114,3.0,4.0,95,-99.99,,,0.00,95.300003,,2013-02-04 01:11:00,
2013-02-03 19:11:00,25.0,25.0,-100.00,NE,55,4.0,5.0,100,-99.99,,,0.00,0.460000,,2013-02-04 02:11:00,
2013-02-03 20:11:00,27.0,27.0,-100.00,SE,133,6.0,8.0,100,-99.99,,,0.00,0.000000,,2013-02-04 03:11:00,
2013-02-03 21:11:00,29.0,29.0,-100.00,SSE,147,3.0,7.0,100,-99.99,,,-99.99,0.000000,,2013-02-04 04:11:00,
2013-02-03 21:31:00,29.0,29.0,-100.00,SSW,193,6.0,7.0,100,-99.99,,,0.00,0.000000,,2013-02-04 04:31:00,
2013-02-03 21:41:00,29.0,29.0,-100.00,SSW,193,6.0,7.0,100,-99.99,,,0.00,0.000000,,2013-02-04 04:41:00,
2013-02-03 21:52:00,29.0,29.0,-100.00,SSW,193,6.0,7.0,100,-99.99,,,0.00,0.000000,,2013-02-04 04:52:00,
2013-02-03 22:03:00,29.0,29.0,-100.00,SSW,193,6.0,7.0,100,-99.99,,,0.00,0.000000,,2013-02-04 05:03:00,
2013-02-03 22:11:00,29.0,29.0,-100.00,SSW,193,6.0,7.0,100,-99.99,,,0.00,0.000000,,2013-02-04 05:11:00,
2013-02-03 22:33:00,30.0,30.0,-100.00,South,190,7.0,9.0,100,-99.99,,,0.00,0.000000,,2013-02-04 05:33:00,
2013-02-03 22:42:00,30.0,30.0,-100.00,South,190,7.0,9.0,100,-99.99,,,0.00,0.000000,,2013-02-04 05:42:00,
2013-02-03 22:52:00,30.0,30.0,-100.00,South,190,7.0,9.0,100,-99.99,,,0.00,0.000000,,2013-02-04 05:52:00,
2013-02-03 23:01:00,30.0,30.0,-100.00,South,190,7.0,9.0,100,-99.99,,,0.00,0.000000,,2013-02-04 06:01:00,
2013-02-03 23:11:00,30.0,30.0,-100.00,South,190,7.0,9.0,100,-99.99,,,0.00,0.000000,,2013-02-04 06:11:00,
2013-02-03 23:31:00,30.0,29.0,-100.00,SSW,201,11.0,14.0,97,-99.99,,,0.00,0.000000,,2013-02-04 06:31:00,
2013-02-03 23:41:00,30.0,29.0,-100.00,SSW,201,11.0,14.0,97,-99.99,,,0.00,0.000000,,2013-02-04 06:41:00,
2013-02-03 23:52:00,30.0,29.0,-100.00,SSW,201,11.0,14.0,97,-99.99,,,0.00,0.000000,,2013-02-04 06:52:00,